Warship F103 — EBDC — position and weather

sailwx.info

Track history (hours):
 
Tides and Currents Weather Stations Pressure Air Temp Water Temp Dewpoint Dewpoint Depression Visibility Wind Speed Wind Dir Waves Ship Positions

Warship F103

Last reported at 2018-Feb-20 18:11 UTC. Time now 2018-Jun-19 20:04 UTC.
Position N 50°08' W 001°58'.
Warning: this ship's position is months out of date.

Type: Military. MMSI: 224767000.

Date/timePositionNaut miles runAvg speedWind from/ knotsBaromVisibWave heightAir tempDewpointWater temp
2018-Feb-20 18:11N 50°08' W 001°58'514.5
2018-Feb-20 17:51N 50°09' W 001°51'1515.0
2018-Feb-20 16:53N 50°12' W 001°29'6315.0
2018-Feb-20 12:42N 50°30' E 000°05'1914.0
2018-Feb-20 11:20N 50°36' E 000°34'613.7
2018-Feb-20 10:52N 50°39' E 000°42'514.0
2018-Feb-20 10:31N 50°43' E 000°48'2114.3
2018-Feb-20 09:01N 50°57' E 001°13'313.5
2018-Feb-20 08:49N 50°59' E 001°17'514.4
2018-Feb-20 08:30N 51°02' E 001°22'714.7
2018-Feb-20 08:00N 51°06' E 001°31'714.5
2018-Feb-20 07:30N 51°11' E 001°40'714.1
2018-Feb-20 07:01N 51°16' E 001°47'714.9
2018-Feb-20 06:31N 51°23' E 001°53'714.4
2018-Feb-20 06:01N 51°29' E 001°59'17113.7
2018-Feb-19 17:32N 53°59' E 004°15'315.4
2018-Feb-19 17:19N 54°01' E 004°19'515.7
2018-Feb-19 17:00N 54°04' E 004°26'815.3
2018-Feb-19 16:29N 54°10' E 004°34'39014.4
2018-Feb-18 13:28N 60°41' E 004°50'714.5
2018-Feb-18 13:00N 60°35' E 004°55'612.6
2018-Feb-18 12:30N 60°29' E 005°00'4 7.2
2018-Feb-18 12:00N 60°26' E 005°03'5 9.7
2018-Feb-18 11:31N 60°23' E 005°12'3 6.4
2018-Feb-18 11:01N 60°24' E 005°18'0 0.0
2018-Feb-16 17:36N 60°24' E 005°18'0 1.2
2018-Feb-16 17:30N 60°24' E 005°18'1 1.5
2018-Feb-16 17:00N 60°24' E 005°17'0 0.6
2018-Feb-16 16:30N 60°25' E 005°17'1 2.1
2018-Feb-16 16:00N 60°26' E 005°16'2 3.2
2018-Feb-16 15:31N 60°24' E 005°17'0 0.4
2018-Feb-16 15:00N 60°24' E 005°17'0 0.4
2018-Feb-16 14:31N 60°24' E 005°16'0 0.3
2018-Feb-16 14:00N 60°24' E 005°16'1 1.5
2018-Feb-16 13:30N 60°24' E 005°15'10 7.1
2018-Feb-16 12:06N 60°30' E 004°58'110.0
2018-Feb-16 12:00N 60°31' E 004°57'5 9.9
2018-Feb-16 11:30N 60°36' E 004°54'5 9.9
2018-Feb-16 11:00N 60°40' E 004°50'19 3.0
2018-Feb-16 04:34N 60°21' E 004°44'412.0
2018-Feb-16 04:12N 60°17' E 004°47'211.9
2018-Feb-16 04:00N 60°15' E 004°48'17 3.6
2018-Feb-15 23:17N 60°07' E 005°18'2 7.8
2018-Feb-15 23:00N 60°09' E 005°16'12 4.8
2018-Feb-15 20:30N 60°08' E 004°52'5 9.5
2018-Feb-15 20:00N 60°13' E 004°49'3 6.6
2018-Feb-15 19:30N 60°16' E 004°47'5 9.5
2018-Feb-15 19:01N 60°20' E 004°44'5 8.6
2018-Feb-15 18:29N 60°25' E 004°41'4 8.6
2018-Feb-15 18:00N 60°29' E 004°38'17 8.2
2018-Feb-15 15:58N 60°45' E 004°39'4 8.2
2018-Feb-15 15:27N 60°44' E 004°48'0 0.2
2018-Feb-15 14:17N 60°45' E 004°48'2 5.5
2018-Feb-15 14:00N 60°43' E 004°49'0 0.1
2018-Feb-15 11:13N 60°43' E 004°48'2 9.9
2018-Feb-15 11:00N 60°41' E 004°50'11 2.9
2018-Feb-15 07:11N 60°48' E 005°07'0 0.0
2018-Feb-15 02:45N 60°48' E 005°07'1 0.7
2018-Feb-15 01:36N 60°48' E 005°08'1 5.3
2018-Feb-15 01:25N 60°48' E 005°07'1 1.4
2018-Feb-15 00:44N 60°49' E 005°05'1 1.0
2018-Feb-14 23:18N 60°48' E 005°07'2 2.2
2018-Feb-14 22:34N 60°49' E 005°05'1 6.0
2018-Feb-14 22:21N 60°48' E 005°07'10 3.2
2018-Feb-14 19:10N 60°44' E 004°48'1 7.4
2018-Feb-14 19:00N 60°43' E 004°49'3 6.0
2018-Feb-14 18:31N 60°40' E 004°52'2 4.7
2018-Feb-14 18:00N 60°38' E 004°52'3 6.0
2018-Feb-14 17:28N 60°41' E 004°50'2 3.2
2018-Feb-14 17:00N 60°42' E 004°49'0 0.1
2018-Feb-14 13:52N 60°42' E 004°49'10 0.8
2018-Feb-14 01:16N 60°48' E 005°07'1 2.0
2018-Feb-14 00:31N 60°49' E 005°05'1 5.7
2018-Feb-14 00:17N 60°48' E 005°07'14 0.4
2018-Feb-12 11:15N 60°45' E 004°39'311.5
2018-Feb-12 11:00N 60°44' E 004°44'611.6
2018-Feb-12 10:30N 60°40' E 004°52'612.3
2018-Feb-12 10:00N 60°34' E 004°55'612.5
2018-Feb-12 09:31N 60°28' E 005°00'5 9.4
2018-Feb-12 08:56N 60°24' E 005°08'4 7.7
2018-Feb-12 08:26N 60°24' E 005°15'2 3.7
2018-Feb-12 08:00N 60°24' E 005°19'  
Track history (hours):
 
Tides and Currents Weather Stations Pressure Air Temp Water Temp Dewpoint Dewpoint Depression Visibility Wind Speed Wind Dir Waves Ship Positions

Warship F103

Last reported at 2018-Feb-20 18:11 UTC. Time now 2018-Jun-19 20:04 UTC.
Position N 50°08' W 001°58'.
Warning: this ship's position is months out of date.

Type: Military. MMSI: 224767000.

Date/timePositionNaut miles runAvg speedWind from/ knotsBaromVisibWave heightAir tempDewpointWater temp
2018-Feb-20 18:11N 50°08' W 001°58'514.5
2018-Feb-20 17:51N 50°09' W 001°51'1515.0
2018-Feb-20 16:53N 50°12' W 001°29'6315.0
2018-Feb-20 12:42N 50°30' E 000°05'1914.0
2018-Feb-20 11:20N 50°36' E 000°34'613.7
2018-Feb-20 10:52N 50°39' E 000°42'514.0
2018-Feb-20 10:31N 50°43' E 000°48'2114.3
2018-Feb-20 09:01N 50°57' E 001°13'313.5
2018-Feb-20 08:49N 50°59' E 001°17'514.4
2018-Feb-20 08:30N 51°02' E 001°22'714.7
2018-Feb-20 08:00N 51°06' E 001°31'714.5
2018-Feb-20 07:30N 51°11' E 001°40'714.1
2018-Feb-20 07:01N 51°16' E 001°47'714.9
2018-Feb-20 06:31N 51°23' E 001°53'714.4
2018-Feb-20 06:01N 51°29' E 001°59'17113.7
2018-Feb-19 17:32N 53°59' E 004°15'315.4
2018-Feb-19 17:19N 54°01' E 004°19'515.7
2018-Feb-19 17:00N 54°04' E 004°26'815.3
2018-Feb-19 16:29N 54°10' E 004°34'39014.4
2018-Feb-18 13:28N 60°41' E 004°50'714.5
2018-Feb-18 13:00N 60°35' E 004°55'612.6
2018-Feb-18 12:30N 60°29' E 005°00'4 7.2
2018-Feb-18 12:00N 60°26' E 005°03'5 9.7
2018-Feb-18 11:31N 60°23' E 005°12'3 6.4
2018-Feb-18 11:01N 60°24' E 005°18'0 0.0
2018-Feb-16 17:36N 60°24' E 005°18'0 1.2
2018-Feb-16 17:30N 60°24' E 005°18'1 1.5
2018-Feb-16 17:00N 60°24' E 005°17'0 0.6
2018-Feb-16 16:30N 60°25' E 005°17'1 2.1
2018-Feb-16 16:00N 60°26' E 005°16'2 3.2
2018-Feb-16 15:31N 60°24' E 005°17'0 0.4
2018-Feb-16 15:00N 60°24' E 005°17'0 0.4
2018-Feb-16 14:31N 60°24' E 005°16'0 0.3
2018-Feb-16 14:00N 60°24' E 005°16'1 1.5
2018-Feb-16 13:30N 60°24' E 005°15'10 7.1
2018-Feb-16 12:06N 60°30' E 004°58'110.0
2018-Feb-16 12:00N 60°31' E 004°57'5 9.9
2018-Feb-16 11:30N 60°36' E 004°54'5 9.9
2018-Feb-16 11:00N 60°40' E 004°50'19 3.0
2018-Feb-16 04:34N 60°21' E 004°44'412.0
2018-Feb-16 04:12N 60°17' E 004°47'211.9
2018-Feb-16 04:00N 60°15' E 004°48'17 3.6
2018-Feb-15 23:17N 60°07' E 005°18'2 7.8
2018-Feb-15 23:00N 60°09' E 005°16'12 4.8
2018-Feb-15 20:30N 60°08' E 004°52'5 9.5
2018-Feb-15 20:00N 60°13' E 004°49'3 6.6
2018-Feb-15 19:30N 60°16' E 004°47'5 9.5
2018-Feb-15 19:01N 60°20' E 004°44'5 8.6
2018-Feb-15 18:29N 60°25' E 004°41'4 8.6
2018-Feb-15 18:00N 60°29' E 004°38'17 8.2
2018-Feb-15 15:58N 60°45' E 004°39'4 8.2
2018-Feb-15 15:27N 60°44' E 004°48'0 0.2
2018-Feb-15 14:17N 60°45' E 004°48'2 5.5
2018-Feb-15 14:00N 60°43' E 004°49'0 0.1
2018-Feb-15 11:13N 60°43' E 004°48'2 9.9
2018-Feb-15 11:00N 60°41' E 004°50'11 2.9
2018-Feb-15 07:11N 60°48' E 005°07'0 0.0
2018-Feb-15 02:45N 60°48' E 005°07'1 0.7
2018-Feb-15 01:36N 60°48' E 005°08'1 5.3
2018-Feb-15 01:25N 60°48' E 005°07'1 1.4
2018-Feb-15 00:44N 60°49' E 005°05'1 1.0
2018-Feb-14 23:18N 60°48' E 005°07'2 2.2
2018-Feb-14 22:34N 60°49' E 005°05'1 6.0
2018-Feb-14 22:21N 60°48' E 005°07'10 3.2
2018-Feb-14 19:10N 60°44' E 004°48'1 7.4
2018-Feb-14 19:00N 60°43' E 004°49'3 6.0
2018-Feb-14 18:31N 60°40' E 004°52'2 4.7
2018-Feb-14 18:00N 60°38' E 004°52'3 6.0
2018-Feb-14 17:28N 60°41' E 004°50'2 3.2
2018-Feb-14 17:00N 60°42' E 004°49'0 0.1
2018-Feb-14 13:52N 60°42' E 004°49'10 0.8
2018-Feb-14 01:16N 60°48' E 005°07'1 2.0
2018-Feb-14 00:31N 60°49' E 005°05'1 5.7
2018-Feb-14 00:17N 60°48' E 005°07'14 0.4
2018-Feb-12 11:15N 60°45' E 004°39'311.5
2018-Feb-12 11:00N 60°44' E 004°44'611.6
2018-Feb-12 10:30N 60°40' E 004°52'612.3
2018-Feb-12 10:00N 60°34' E 004°55'612.5
2018-Feb-12 09:31N 60°28' E 005°00'5 9.4
2018-Feb-12 08:56N 60°24' E 005°08'4 7.7
2018-Feb-12 08:26N 60°24' E 005°15'2 3.7
2018-Feb-12 08:00N 60°24' E 005°19'  

Dump ship's entire track history